EW0627 Weather Reports


Display with metric or nautical units.
time (UTC)temp
F
wind
direction
speed
MPH
gust
MPH
rain 1hr
in
rain 24hr
in
rain mn
in
humidity
%
barometer
mb
20171217135547 61 109 2.0 7.0 0.00 0.00 0.00 86 1024.3
20171217134117 59 76 3.0 8.0 0.00 0.00 0.00 88 1024.0
20171217132543 58 94 2.0 6.0 0.00 0.00 0.00 89 1024.1
20171217131109 57 82 1.0 6.0 0.00 0.00 0.00 91 1024.0
20171217125550 56 78 3.0 8.0 0.00 0.00 0.00 93 1023.8
20171217124056 55 109 2.0 7.0 0.00 0.00 0.00 93 1023.6
20171217122600 55 82 1.0 4.0 0.00 0.00 0.00 93 1023.4
20171217121038 55 118 1.0 5.0 0.00 0.00 0.00 93 1023.3
20171217115553 55 103 2.0 6.0 0.00 0.00 0.00 93 1023.0
20171217114052 55 80 1.0 7.0 0.00 0.00 0.00 93 1022.9
20171217112551 55 76 2.0 8.0 0.00 0.00 0.00 93 1022.9
20171217111050 55 68 2.0 8.0 0.00 0.00 0.00 93 1022.8
20171217105650 55 75 2.0 8.0 0.00 0.00 0.00 92 1022.7
20171217104054 55 102 2.0 9.0 0.00 0.00 0.00 92 1022.5
20171217102553 55 77 2.0 7.0 0.00 0.00 0.00 91 1022.7
20171217101046 55 119 3.0 8.0 0.00 0.00 0.00 91 1022.7
20171217095516 56 101 2.0 7.0 0.00 0.00 0.00 91 1022.6
20171217093953 56 85 2.0 10.0 0.00 0.00 0.00 91 1022.6
20171217092514 56 113 2.0 8.0 0.00 0.00 0.00 91 1022.7
20171217090957 56 84 2.0 7.0 0.00 0.00 0.00 91 1022.8
20171217085520 56 116 4.0 9.0 0.00 0.00 0.00 90 1023.1
20171217084002 56 93 2.0 6.0 0.00 0.00 0.00 90 1023.2
20171217082446 56 100 3.0 9.0 0.00 0.00 0.00 90 1023.3
20171217080947 56 84 2.0 7.0 0.00 0.00 0.00 89 1023.5
20171217075440 56 82 2.0 8.0 0.00 0.00 0.00 89 1023.7
20171217073943 56 97 2.0 7.0 0.00 0.00 0.00 89 1023.7
20171217072434 56 83 1.0 5.0 0.00 0.00 0.00 88 1024.0
20171217070952 57 107 2.0 5.0 0.00 0.00 0.00 88 1024.1
20171217065511 57 74 2.0 7.0 0.00 0.00 0.00 88 1024.2
20171217063958 57 109 3.0 7.0 0.00 0.00 0.00 87 1024.1
20171217062501 57 84 3.0 7.0 0.00 0.00 0.00 87 1024.2
20171217060957 57 107 1.0 6.0 0.00 0.00 0.00 86 1024.3
20171217055454 58 94 3.0 9.0 0.00 0.00 0.00 85 1024.2
20171217053957 58 109 3.0 8.0 0.00 0.00 0.00 84 1024.0
20171217052506 58 80 4.0 10.0 0.00 0.00 0.00 84 1023.8
20171217050947 58 92 2.0 7.0 0.00 0.00 0.00 83 1023.8
20171217045452 59 69 3.0 7.0 0.00 0.00 0.00 83 1023.9
20171217043950 59 98 2.0 8.0 0.00 0.00 0.00 82 1024.0
20171217042513 59 104 2.0 7.0 0.00 0.00 0.00 81 1023.9
20171217041012 60 94 2.0 5.0 0.00 0.00 0.00 80 1024.0
20171217035444 60 55 2.0 5.0 0.00 0.00 0.00 79 1024.1
20171217033940 60 88 4.0 8.0 0.00 0.00 0.00 78 1024.0
20171217032447 61 88 2.0 6.0 0.00 0.00 0.00 78 1024.1
20171217031119 61 92 1.0 4.0 0.00 0.00 0.00 78 1023.9
20171217025448 61 98 1.0 4.0 0.00 0.00 0.00 77 1023.9
20171217023946 61 109 2.0 5.0 0.00 0.00 0.00 77 1023.9
20171217022436 62 83 1.0 4.0 0.00 0.00 0.00 77 1023.9
20171217020938 62 99 1.0 3.0 0.00 0.00 0.00 77 1023.9
20171217015434 62 84 1.0 3.0 0.00 0.00 0.00 77 1023.9
20171217014013 62 80 1.0 3.0 0.00 0.00 0.00 77 1023.8
20171217012435 63 92 0.0 3.0 0.00 0.00 0.00 78 1023.7
20171217010934 62 66 0.0 3.0 0.00 0.00 0.00 79 1023.6
20171217005346 62 24 0.0 1.0 0.00 0.00 0.00 83 1023.5
20171217003846 62 22 0.0 1.0 0.00 0.00 0.00 84 1023.5
20171217002352 62 26 1.0 2.0 0.00 0.00 0.00 83 1023.5
20171217000849 63 24 0.0 4.0 0.00 0.00 0.00 82 1023.3
20171216235418 63 19 0.0 2.0 0.00 0.00 0.00 82 1023.3
20171216233854 63 40 1.0 5.0 0.00 0.00 0.00 80 1022.9
20171216232453 64 341 3.0 6.0 0.00 0.00 0.00 78 1022.7
20171216230857 64 26 2.0 5.0 0.00 0.00 0.00 77 1022.4
20171216225456 64 349 2.0 4.0 0.00 0.00 0.00 77 1022.4
20171216223839 65 321 3.0 5.0 0.00 0.00 0.00 75 1022.3
20171216222341 66 335 3.0 6.0 0.00 0.00 0.00 72 1022.2
20171216220905 66 333 4.0 7.0 0.00 0.00 0.00 71 1022.1
20171216215340 67 329 4.0 9.0 0.00 0.00 0.00 70 1021.9
20171216213850 68 336 5.0 9.0 0.00 0.00 0.00 67 1021.7
20171216212343 69 330 4.0 7.0 0.00 0.00 0.00 67 1021.6
20171216210916 69 324 5.0 8.0 0.00 0.00 0.00 67 1021.5
20171216205456 69 321 4.0 8.0 0.00 0.00 0.00 68 1021.5
20171216203857 67 332 5.0 9.0 0.00 0.00 0.00 69 1021.5
20171216202411 67 321 6.0 9.0 0.00 0.00 0.00 68 1021.6
20171216200909 67 325 7.0 10.0 0.00 0.00 0.00 69 1021.6
20171216195420 68 326 5.0 8.0 0.00 0.00 0.00 71 1021.6
20171216193921 68 280 3.0 6.0 0.00 0.00 0.00 70 1021.5
20171216192411 68 327 5.0 9.0 0.00 0.00 0.00 68 1021.6
20171216191036 68 323 5.0 9.0 0.00 0.00 0.00 69 1021.7
20171216185450 69 320 4.0 9.0 0.00 0.00 0.00 66 1021.8
20171216183922 70 311 4.0 9.0 0.00 0.00 0.00 63 1022.0
20171216182417 74 140 1.0 3.0 0.00 0.00 0.00 56 1022.1
20171216180900 73 329 0.0 5.0 0.00 0.00 0.00 57 1022.2
20171216175413 72 16 2.0 5.0 0.00 0.00 0.00 58 1022.5
20171216173850 72 101 1.0 5.0 0.00 0.00 0.00 56 1022.7
20171216172345 71 119 3.0 8.0 0.00 0.00 0.00 58 1023.0
20171216170853 70 114 2.0 6.0 0.00 0.00 0.00 58 1023.0
20171216165304 69 49 2.0 5.0 0.00 0.00 0.00 58 1023.3
20171216163758 68 49 3.0 7.0 0.00 0.00 0.00 59 1023.7
20171216162244 68 40 2.0 5.0 0.00 0.00 0.00 60 1023.8
20171216160802 68 349 2.0 5.0 0.00 0.00 0.00 60 1024.0
20171216155258 66 121 1.0 6.0 0.00 0.00 0.00 61 1024.2
20171216153756 65 62 2.0 8.0 0.00 0.00 0.00 63 1024.2
20171216152253 64 94 2.0 7.0 0.00 0.00 0.00 62 1024.3
20171216150754 63 53 2.0 10.0 0.00 0.00 0.00 63 1024.2
20171216145258 62 355 4.0 7.0 0.00 0.00 0.00 62 1024.0
20171216143835 62 92 2.0 6.0 0.00 0.00 0.00 63 1023.8
20171216142303 61 76 1.0 10.0 0.00 0.00 0.00 65 1023.8
20171216140819 60 42 3.0 9.0 0.00 0.00 0.00 64 1023.7